Location: *
(37.5724°S, 58.0067°E)
Time: 10:41:49
(UTC+00:00)

In-Cosmos 22 - Visible Passes

Search period start: 20 June 2021 00:00
Search period end: 30 June 2021 00:00
Orbit: 784 x 877 km, 81.2° (Epoch: 19 June)

Date Brightness Start Highest point End Pass type
(mag) Time Alt. Az. Time Alt. Az. Time Alt. Az.
22 Jun 6.4 15:27:35 10° S 15:28:05 13° S 15:28:05 13° S visible
23 Jun 7.2 02:52:09 10° ENE 02:54:38 13° E 02:57:07 10° ESE visible
23 Jun 5.6 15:09:39 10° S 15:22:13 - NNE 15:11:46 23° S visible
24 Jun 4.1 14:51:46 10° S 14:57:13 54° ESE 15:02:29 10° NNE visible
24 Jun 6.7 16:35:51 10° SW 16:39:07 16° W 16:42:21 10° WNW visible
25 Jun 4.4 14:33:56 10° S 14:39:13 43° ESE 14:44:19 10° NNE visible
25 Jun 6.4 16:17:22 10° SW 16:21:17 20° W 16:25:08 10° NW visible
26 Jun 4.6 14:16:08 10° S 14:21:11 35° ESE 14:26:04 10° NE visible
26 Jun 6.1 15:59:01 10° SW 16:03:26 25° W 16:07:44 10° NW visible
27 Jun 4.9 13:58:24 10° SSE 14:03:07 28° ESE 14:07:43 10° NE visible
27 Jun 5.8 15:40:47 10° SSW 15:45:33 31° W 15:50:12 10° NNW visible
28 Jun 5.2 13:40:45 10° SSE 13:45:03 23° ESE 13:49:16 10° ENE visible
28 Jun 5.4 15:22:37 10° SSW 15:27:40 39° W 15:32:35 10° NNW visible
29 Jun 6.3 02:43:50 10° NNE 02:48:51 31° E 02:53:52 10° SSE visible
29 Jun 5.4 13:23:10 10° SSE 13:26:58 19° ESE 13:30:40 10° ENE visible
29 Jun 5.0 15:04:30 10° SSW 15:09:46 48° W 15:14:52 10° NNW visible
